Location: Dumpton Point
(51.3500°N, 1.4433°E)
Time: 05:43:05
(UTC+00:00)

Altair - Pass Details

Date: 04 October 2022
Orbit: 1501 x 1682 km, 47.2° (Epoch: 04 December)

Event Time Altitude Azimuth Distance (km) Brightness Sun altitude
Rises 06:08:56 0° 247° (WSW) 4,793 9.6 0.6°
Reaches altitude 10° 06:12:01 10° 244° (WSW) 3,833 9.1 1.1°
Maximum altitude 06:21:41 65° 166° (SSE) 1,785 8.1 2.6°
Drops below altitude 10° 06:31:40 10° 88° (E) 3,942 11.6 4.1°
Sets 06:34:52 0° 85° (E) 4,937 11.9 4.6°
